User: anonymous   Login
Location: Barton Flats Campground
(34.1722°N, 116.8753°W)
Time: 19:15:06
(UTC+00:00)
Language:

Cosmos 1484 Rocket - Orbit

View from above orbital plane
View from above orbital plane
View from above satellite
View from above satellite

Ground track
Ground track

The orbit data is extracted from the following two-line orbital elements,

1 14208U 83075B   20296.18097592  .00000385  00000-0  26413-4 0  9994
2 14208  97.4108 275.7804 0037356 229.2178 130.5809 15.11198769 32160
Epoch (UTC): 22 October 2020 04:20:36
Eccentricity: 0.0037356
inclination: 97.4108°
perigee height: 507 km
apogee height: 558 km
right ascension of ascending node: 275.7804°
argument of perigee: 229.2178°
revolutions per day: 15.11198769
mean anomaly at epoch: 130.5809°
orbit number at epoch: 3216

The dashed part of the orbit path shows where the satellite is in the earth's shadow,  

DLR